This demonstration page uses our WeatherBlox Daily Observations layout. Learn more.

Left ArrowRight Arrow

Hourly Observations for December 9, 2020

Temp ( °F °C ) Dew Point ( °F °C ) Humidity (%) Winds ( mph kmh ) Pressure ( in mb ) Visibility ( mi km ) Precip ( " mm )
12:52 am 00:52 Cloudy 37 2.8 29 -1.7 73 73 SE 6 9 29.93 1014 10 16 0.00 0.00
1:52 am 01:52 Cloudy 40 4.4 28 -2.2 63 63 ESE 3 6 29.93 1014 10 16 0.00 0.00
2:52 am 02:52 Mostly Cloudy 39 3.9 27 -2.8 62 62 NNE 6 9 29.94 1014 10 16 0.00 0.00
3:52 am 03:52 Mostly Cloudy 37 2.8 26 -3.3 65 65 Calm 29.94 1014 10 16 0.00 0.00
4:52 am 04:52 Partly Cloudy 34 1.1 26 -3.3 73 73 WNW 3 6 29.96 1014 10 16 0.00 0.00
5:52 am 05:52 Mostly Clear 37 2.8 26 -3.3 65 65 NNW 5 7 29.96 1014 10 16 0.00 0.00
6:52 am 06:52 Mostly Clear 33 0.6 28 -2.2 82 82 NNW 3 6 29.98 1015 10 16 0.00 0.00
7:52 am 07:52 Mostly Sunny 34 1.1 27 -2.8 76 76 N 3 6 29.99 1016 10 16 0.00 0.00
8:52 am 08:52 Partly Cloudy 42 5.6 29 -1.7 60 60 Calm 30.01 1016 10 16 0.00 0.00
9:52 am 09:52 Partly Cloudy 48 8.9 29 -1.7 48 48 N 10 17 30.02 1017 10 16 0.00 0.00
10:52 am 10:52 Partly Cloudy 54 12.2 27 -2.8 35 35 NNW 12 19 30.02 1017 10 16 0.00 0.00
11:52 am 11:52 Sunny 57 13.9 29 -1.7 34 34 N 12 19 30.01 1016 10 16 0.00 0.00
12:52 pm 12:52 Sunny 59 15 30 -1.1 33 33 NNW 15 24 29.98 1015 10 16 0.00 0.00
1:52 pm 13:52 Sunny 59 15 31 -0.6 35 35 N 13 20 29.97 1015 10 16 0.00 0.00
2:52 pm 14:52 Sunny 61 16.1 31 -0.6 32 32 NW 6 9 29.97 1015 10 16 0.00 0.00
3:52 pm 15:52 Mostly Sunny 59 15 32 0 36 36 N 7 11 29.96 1015 10 16 0.00 0.00
4:52 pm 16:52 Mostly Sunny 52 11.1 31 -0.6 45 45 NNE 8 13 29.98 1015 10 16 0.00 0.00
5:52 pm 17:52 Mostly Clear 47 8.3 30 -1.1 52 52 NNW 3 6 29.99 1016 10 16 0.00 0.00
6:52 pm 18:52 Mostly Clear 42 5.6 30 -1.1 62 62 Calm 29.99 1016 10 16 0.00 0.00
7:52 pm 19:52 Mostly Clear 39 3.9 31 -0.6 73 73 Calm 29.99 1016 10 16 0.00 0.00
8:52 pm 20:52 Mostly Clear 37 2.8 29 -1.7 73 73 Calm 29.98 1015 10 16 0.00 0.00
9:52 pm 21:52 Clear 36 2.2 28 -2.2 73 73 Calm 29.97 1015 10 16 0.00 0.00
10:52 pm 22:52 Clear 33 0.6 29 -1.7 85 85 WNW 5 7 29.96 1015 10 16 0.00 0.00
11:52 pm 23:52 Clear 31 -0.6 26 -3.3 82 82 W 3 6 29.93 1014 10 16 0.00 0.00

Powered by AerisWeather